sat.trackr.live / text

‹ back to catalog

KUIPER-00364

NORAD 68867 · 2026-095D

PAYLOAD ACTIVE UNKNOWN

§ Identity

Operator
Country
US
Launch date
2026-04-28
Launch site
AFETR
Launch vehicle
Mass (kg)
RCS (m²)

External: N2YO · Heavens-Above · Gunter

§ Orbital elements

Epoch: 2026-05-25T00:03:41.271264Z

Period
93.62 min
Inclination
51.8816°
Eccentricity
0.0003370
Mean motion
15.38179187 rev/d
Perigee alt
449.2 km
Apogee alt
453.8 km
Semi-major
6,829.6 km
B*
7.1010e-4
RAAN
354.4048°
Arg perigee
197.5487°
Mean anomaly
162.5384°
Rev number
416

§ Raw data

KUIPER-003641 68867U 26095D   26145.00256101  .00026825  00000+0  71010-3 0  99942 68867  51.8816 354.4048 0003370 197.5487 162.5384 15.38179187  4168

JSON: /api/v1/satellites/68867 · /tle

For live sub-satellite position, see the globe view (requires WebGL).

§ Visibility from observer

Set your observer location to see the next 7 days of passes ≥ 10°. The values pass through the URL so the page stays shareable.

No JS? Fill the form by hand. The geolocation button needs JavaScript.